TimePST,TemperatureF,Dew PointF,Humidity,Sea Level PressureIn,VisibilityMPH,Wind Direction,Wind SpeedMPH,Gust SpeedMPH,PrecipitationIn,Events,Conditions,WindDirDegrees,DateUTC
12:53 AM,43.0,24.1,47,30.12,10.0,Calm,Calm,-,N/A,,Clear,0,2014-01-20 08:53:00
1:53 AM,42.1,23.0,47,30.12,10.0,NW,4.6,-,N/A,,Clear,320,2014-01-20 09:53:00
2:53 AM,42.1,24.1,49,30.13,10.0,WNW,4.6,-,N/A,,Clear,290,2014-01-20 10:53:00
3:53 AM,39.0,24.1,55,30.13,10.0,Calm,Calm,-,N/A,,Clear,0,2014-01-20 11:53:00
4:53 AM,37.9,24.1,57,30.12,10.0,Calm,Calm,-,N/A,,Clear,0,2014-01-20 12:53:00
5:53 AM,39.9,26.1,58,30.13,10.0,West,3.5,-,N/A,,Clear,280,2014-01-20 13:53:00
6:53 AM,39.9,25.0,55,30.15,10.0,WSW,4.6,-,N/A,,Clear,240,2014-01-20 14:53:00
7:53 AM,39.9,25.0,55,30.16,10.0,Calm,Calm,-,N/A,,Clear,0,2014-01-20 15:53:00
8:53 AM,48.9,25.0,39,30.18,10.0,Calm,Calm,-,N/A,,Clear,0,2014-01-20 16:53:00
9:53 AM,54.0,25.0,33,30.20,10.0,Calm,Calm,-,N/A,,Clear,0,2014-01-20 17:53:00
10:53 AM,59.0,25.0,27,30.19,10.0,Calm,Calm,-,N/A,,Clear,0,2014-01-20 18:53:00
11:53 AM,64.0,24.1,22,30.16,10.0,Calm,Calm,-,N/A,,Clear,0,2014-01-20 19:53:00
12:53 PM,69.1,26.1,20,30.14,10.0,Calm,Calm,-,N/A,,Clear,0,2014-01-20 20:53:00
1:53 PM,72.0,27.0,19,30.12,10.0,Calm,Calm,-,N/A,,Clear,0,2014-01-20 21:53:00
2:53 PM,73.0,27.0,18,30.13,10.0,South,4.6,-,N/A,,Clear,170,2014-01-20 22:53:00
3:53 PM,66.0,34.0,30,30.14,10.0,South,6.9,-,N/A,,Clear,190,2014-01-20 23:53:00
4:53 PM,60.1,30.9,33,30.15,10.0,Calm,Calm,-,N/A,,Clear,0,2014-01-21 00:53:00
5:53 PM,53.1,41.0,64,30.16,10.0,Calm,Calm,-,N/A,,Clear,0,2014-01-21 01:53:00
6:53 PM,51.1,37.9,61,30.18,10.0,Calm,Calm,-,N/A,,Clear,0,2014-01-21 02:53:00
7:53 PM,48.0,34.0,58,30.20,10.0,Calm,Calm,-,N/A,,Clear,0,2014-01-21 03:53:00
8:53 PM,48.0,34.0,58,30.21,10.0,WNW,4.6,-,N/A,,Clear,300,2014-01-21 04:53:00
9:53 PM,46.9,33.1,59,30.22,10.0,NW,3.5,-,N/A,,Clear,310,2014-01-21 05:53:00
10:53 PM,43.0,30.9,62,30.23,10.0,Calm,Calm,-,N/A,,Clear,0,2014-01-21 06:53:00
11:53 PM,43.0,30.0,60,30.24,10.0,NNW,6.9,-,N/A,,Clear,330,2014-01-21 07:53:00